EW2725 Weather Reports


Display with metric or nautical units.
time (UTC)temp
F
wind
direction
speed
MPH
gust
MPH
rain 1hr
in
rain 24hr
in
rain mn
in
humidity
%
barometer
mb
20260905064624 61 360 0.0 0.0 0.00 0.00 0.00 89 1100.1
20260905061513 62 236 0.0 0.0 0.00 0.00 0.00 90 1100.1
20260905060021 62 236 0.0 0.0 0.00 0.00 0.00 91 1100.1
20260905051516 62 360 0.0 0.0 0.00 0.00 0.00 91 1100.1
20260905034615 64 236 0.0 0.0 0.00 0.00 0.01 90 1100.1
20260905031552 64 236 0.0 0.0 0.00 0.00 0.01 90 1100.1
20260905031506 64 236 0.0 0.0 0.00 0.00 0.01 90 1100.1
20260905014629 66 236 0.0 0.0 0.00 0.00 0.01 89 1100.1
20260905004505 68 236 0.0 0.0 0.00 0.00 0.01 86 1100.1
20260905003112 68 236 0.0 0.0 0.00 0.00 0.01 85 1100.1
20260904234538 69 236 0.0 0.0 0.00 0.00 0.01 83 1100.1
20260904231655 71 236 0.0 0.0 0.00 0.00 0.01 80 1100.1
20260904230126 71 236 0.0 0.0 0.00 0.00 0.01 78 1100.1
20260904223153 74 236 2.0 0.0 0.00 0.00 0.01 76 1100.1
20260904221509 74 236 0.0 0.0 0.00 0.00 0.01 79 1100.1
20260904220011 76 236 0.0 0.0 0.00 0.00 0.01 74 1100.1
20260904213145 77 236 1.0 0.0 0.00 0.00 0.01 73 1100.1
20260904204649 75 236 0.0 0.0 0.00 0.00 0.01 77 1100.1
20260904193002 77 236 2.0 0.0 0.00 0.00 0.01 75 1100.1
20260904190002 76 236 3.0 0.0 0.00 0.00 0.01 76 1100.1
20260904184656 76 236 2.0 0.0 0.00 0.00 0.01 77 1100.1
20260904183012 76 236 0.0 0.0 0.00 0.00 0.01 78 1100.1
20260904181640 75 236 2.0 0.0 0.00 0.00 0.01 79 1100.1
20260904180142 75 236 4.0 0.0 0.00 0.00 0.01 78 1100.1
20260904174604 75 236 2.0 0.0 0.00 0.00 0.01 78 1100.1
20260904173041 74 236 3.0 0.0 0.00 0.00 0.01 80 1100.1
20260904171626 73 236 4.0 0.0 0.00 0.00 0.01 81 1100.1
20260904170127 73 236 3.0 0.0 0.00 0.00 0.01 80 1100.1
20260904161658 76 236 1.0 0.0 0.00 0.00 0.01 73 1100.1
20260904154559 76 236 2.0 0.0 0.00 0.00 0.01 77 1100.1
20260904153105 76 236 1.0 0.0 0.00 0.00 0.01 75 1100.1
20260904151518 75 236 2.0 0.0 0.00 0.00 0.01 80 1100.1
20260904133001 68 236 3.0 0.0 0.00 0.00 0.01 93 1100.1
20260904131610 69 236 4.0 0.0 0.00 0.00 0.01 93 1100.1
20260904130117 69 236 2.0 0.0 0.00 0.00 0.01 93 1100.1
20260904124518 69 236 1.0 0.0 0.00 0.00 0.01 93 1100.1
20260904123057 68 236 0.0 0.0 0.00 0.00 0.01 93 1100.1
20260904121558 67 236 1.0 0.0 0.00 0.00 0.01 93 1100.1
20260904120141 67 236 0.0 0.0 0.00 0.00 0.01 93 1100.1
20260904111632 65 236 0.0 0.0 0.00 0.00 0.01 93 1100.1
20260904103139 65 15 0.0 0.0 0.00 0.00 0.01 93 1100.1
20260904101558 65 15 0.0 0.0 0.00 0.00 0.01 93 1100.1
20260904100130 65 15 0.0 0.0 0.00 0.00 0.01 93 1100.1
20260904094631 65 15 0.0 0.0 0.00 0.00 0.01 93 1100.1
20260904093055 65 15 0.0 0.0 0.00 0.00 0.01 93 1100.1
20260904091609 64 15 0.0 0.0 0.00 0.00 0.01 92 1100.1
20260904090014 65 15 0.0 0.0 0.00 0.00 0.01 92 1100.1
20260904084513 65 15 1.0 0.0 0.00 0.00 0.01 93 1100.1
20260904083111 66 15 2.0 0.0 0.00 0.00 0.01 93 1100.1
20260904081607 66 15 1.0 0.0 0.00 0.00 0.01 92 1100.1
20260904080119 66 15 1.0 0.0 0.00 0.00 0.00 93 1100.1
20260904074619 66 15 0.0 0.0 0.00 0.00 0.00 93 1100.1
20260904073128 66 15 0.0 0.0 0.00 0.00 0.00 92 1100.1
20260904071629 67 15 1.0 0.0 0.00 0.00 0.00 92 1100.1
20260904070116 65 15 0.0 0.0 0.00 0.00 0.00 92 1100.1